Regional Weather Roundup
Issued by NWS Portland, ME

Current Version | Previous Version | Graphics & Text | Print | Product List | Glossary On
Versions: 1 2 3 4 5 6 7 8 9 10 11 12 13 14 15 16 17 18 19 20 21 22 23 24 25 26 27 28 29 30 31 32 33 34 35 36 37 38 39 40 41 42 43 44 45 46 47 48 49 50
000
ASUS41 KGYX 171310
RWRGYX
WEATHER ROUNDUP FOR MAINE AND NEW HAMPSHIRE
NATIONAL WEATHER SERVICE GRAY ME
900 AM EDT WED SEP 17 2014

MEZ002-005-006-010-012-015-018-020-021-024-026-027-029-171400-
MAINE

CITY           SKY/WX    TMP DP  RH WIND       PRES   REMARKS
PORTLAND       SUNNY     55  51  86 NW3       30.01S
SANFORD        SUNNY     57  48  72 CALM      30.02R
BAR HARBOR     SUNNY     57  52  82 CALM      29.99R
WISCASSET      SUNNY     58  53  84 CALM      30.02R
ROCKLAND       SUNNY     55  52  88 W6        29.99S
FRYEBURG       CLOUDY    49  48  97 CALM      30.02S FOG
LEWISTONAUBURN SUNNY     52  48  87 CALM      30.01R
AUGUSTA        SUNNY     56  50  80 NW5       30.00S
WATERVILLE     SUNNY     54  46  76 S3        29.95R
BANGOR         SUNNY     55  49  80 VRB5      29.99S
GREENVILLE       N/A     51  45  79 CALM      29.96R
MILLINOCKET    SUNNY     53  49  86 CALM      29.97R
HOULTON        SUNNY     54  48  80 S5        29.93R
PRESQUE ISLE   SUNNY     52  43  71 SW6       29.92R
FRENCHVILLE    CLOUDY    45  40  82 NW14G21   29.91R
CARIBOU        MOSUNNY   53  46  77 W5        29.91R
$$

NHZ002-005-008-009-011-012-014-171400-
NEW HAMPSHIRE

CITY           SKY/WX    TMP DP  RH WIND       PRES   REMARKS
PORTSMOUTH     SUNNY     57  51  79 NW6       30.00S
ROCHESTER      SUNNY     55  50  83 NW6       30.01R
NASHUA         SUNNY     54  49  83 CALM      30.04R
MANCHESTER     SUNNY     56  48  74 VRB3      30.02R
CONCORD        CLOUDY    49  48  97 CALM      30.03R FOG
LACONIA        MOSUNNY   52  48  87 W5        30.01S
PLYMOUTH       FOG       45  45 100 CALM      30.03S VSB 1
BERLIN         CLOUDY    43  43 100 CALM      30.01S FOG
WHITEFIELD     FOG       47  45  93 CALM      30.03R VSB 1/4
JAFFREY        NOT AVBL
LEBANON        CLOUDY    48  45  89 S3        30.03S FOG
MT WASHINGTON  MOSUNNY   32  27  80 W7          N/A
$$

VTZ005-007-008-171400-
VERMONT

CITY           SKY/WX    TMP DP  RH WIND       PRES   REMARKS
ST JOHNSBURY     N/A     44  44 100 MISG      30.01S
MONTPELIER     PTSUNNY   45  45 100 NE3       30.05  FOG
BURLINGTON     SUNNY     55  47  74 S10       30.02R
$$

MAZ007-012-024-CTZ003-RIZ002-NYZ038-NYZ072-171400-
SOUTHERN NEW ENGLAND AND NY

CITY           SKY/WX    TMP DP  RH WIND       PRES   REMARKS
BOSTON         SUNNY     60  48  64 NW7       30.02S
WORCESTER      SUNNY     54  46  74 NW13      30.03S
NANTUCKET      SUNNY     66  55  67 VRB3      30.00S
PROVIDENCE     MOSUNNY   62  48  60 N6        30.04R
HARTFORD       MOSUNNY   57  49  74 N3        30.04S
ALBANY         MOSUNNY   52  47  83 S3        30.07R
NEW YORK CITY  MOSUNNY   62  49  62 NE6       30.05S
$$

ANZ081-ANZ082-ANZ150-NHZ014-MEZ023>029-171400-
COASTAL MARINE OBSERVATIONS

STATION/POSITION TIME  TEMP    WIND        PRES    WAVE
                       AIR SEA DIR/SP/G            HT/PER
                 (UTC) (F)     (DEG/KT/KT) (MB)    (FT/S)
MATINICUS ROCK   1300          300/  5/  6 1015.6R
PORTLAND WX BUOY 1250   57 59   CALM  /  2 1016.0R   1/12
WELLS            1200   54 58   40/  1/  2 1015.2R
ISLE OF SHOALS   1300   56      10/  6/  7 1015.9R
JEFFREYS LEDGE   1221      61                N/A     2/13
CASHES LEDGE BUO 1250   61 62              1015.6R   3/15
$$

.............KEY..............
   WCI - WIND CHILL
   TC  - TEMPERATURE IN CELSIUS
   VSB - VISIBILITY IN MILES
   HX  - HEAT INDEX
   FAIR- INDICATES FEW OR NO CLOUDS BELOW 12,000 FT, WITH NO
         SIGNIFICANT WEATHER AND/OR OBSTRUCTIONS TO VISIBILITY.





USA.gov is the U.S. government's official web portal to all federal, state and local government web resources and services.